When you browse on this site, cookies collect data to enhance your experience and personalize the content and advertising you see.
Visit our Privacy Policy to learn more. By continuing to use the site, you agree to this use of cookies and data.
  • în România
  • Lista ţărilor
  • Pe 7 zile
  • Temperatura apei
  • Meteo pe hartă
  • Widget-uri
  • user-avatar
    Intrare

    Meteo pe oră la Bedford

    Astăzi, 7 Iunie, Duminică

    Timp Temperatura Precipitaţii Vânt Presiune Umiditate
    00:00 +7°C° 0 mm 2 m/s 749 mmHg 92%
    01:00 +7°C° 0 mm 3 m/s 749 mmHg 93%
    02:00 +5°C° 0 mm 3 m/s 749 mmHg 95%
    03:00 +5°C° 0 mm 3 m/s 750 mmHg 96%
    04:00 +7°C° 0 mm 3 m/s 750 mmHg 96%
    05:00 +7°C° 0 mm 4 m/s 750 mmHg 95%
    06:00 +8°C° 0 mm 4 m/s 751 mmHg 95%
    07:00 +10°C° 0.1 mm 4 m/s 751 mmHg 92%
    08:00 +11°C° 0.1 mm 4 m/s 752 mmHg 89%
    09:00 +12°C° 0.1 mm 5 m/s 752 mmHg 86%
    10:00 +12°C° 0.2 mm 4 m/s 753 mmHg 87%
    11:00 +12°C° 0.2 mm 4 m/s 753 mmHg 88%
    12:00 +12°C° 0.2 mm 3 m/s 753 mmHg 89%
    13:00 +13°C° 0.3 mm 4 m/s 754 mmHg 88%
    14:00 +13°C° 0.3 mm 4 m/s 754 mmHg 86%
    15:00 +13°C° 0.3 mm 5 m/s 754 mmHg 85%
    16:00 +13°C° 0.1 mm 5 m/s 755 mmHg 85%
    17:00 +12°C° 0.1 mm 5 m/s 755 mmHg 85%
    18:00 +12°C° 0.1 mm 5 m/s 755 mmHg 84%
    19:00 +12°C° 0 mm 5 m/s 756 mmHg 86%
    20:00 +11°C° 0 mm 4 m/s 757 mmHg 87%
    21:00 +10°C° 0 mm 4 m/s 757 mmHg 88%
    22:00 +10°C° 0 mm 4 m/s 758 mmHg 88%
    23:00 +8°C° 0 mm 4 m/s 758 mmHg 89%

    Mâine, 8 Iunie, Luni

    Timp Temperatura Precipitaţii Vânt Presiune Umiditate
    00:00 +9°C° 0 mm 3 m/s 758 mmHg 90%
    01:00 +8°C° 0 mm 3 m/s 758 mmHg 92%
    02:00 +7°C° 0 mm 3 m/s 759 mmHg 93%
    03:00 +7°C° 0 mm 3 m/s 759 mmHg 95%
    04:00 +6°C° 0 mm 4 m/s 759 mmHg 92%
    05:00 +6°C° 0 mm 4 m/s 759 mmHg 89%
    06:00 +7°C° 0 mm 5 m/s 760 mmHg 86%
    07:00 +8°C° 0 mm 5 m/s 760 mmHg 81%
    08:00 +10°C° 0 mm 4 m/s 760 mmHg 76%
    09:00 +11°C° 0 mm 4 m/s 761 mmHg 71%
    10:00 +12°C° 0 mm 4 m/s 761 mmHg 69%
    11:00 +13°C° 0 mm 4 m/s 761 mmHg 67%
    12:00 +13°C° 0 mm 4 m/s 761 mmHg 65%
    13:00 +13°C° 0 mm 4 m/s 761 mmHg 65%
    14:00 +13°C° 0 mm 4 m/s 761 mmHg 65%
    15:00 +13°C° 0 mm 4 m/s 761 mmHg 64%
    16:00 +13°C° 0 mm 4 m/s 761 mmHg 66%
    17:00 +12°C° 0 mm 3 m/s 761 mmHg 68%
    18:00 +12°C° 0 mm 3 m/s 761 mmHg 71%
    19:00 +10°C° 0 mm 3 m/s 761 mmHg 77%
    20:00 +9°C° 0 mm 3 m/s 761 mmHg 84%
    21:00 +7°C° 0 mm 2 m/s 762 mmHg 91%
    22:00 +6°C° 0 mm 2 m/s 762 mmHg 91%
    23:00 +7°C° 0 mm 1 m/s 762 mmHg 91%

    Poimâine, 9 Iunie, Marţi

    Timp Temperatura Precipitaţii Vânt Presiune Umiditate
    00:00 +6°C° 0 mm 1 m/s 762 mmHg 91%
    01:00 +6°C° 0 mm 1 m/s 762 mmHg 90%
    02:00 +4°C° 0 mm 0 m/s 762 mmHg 90%
    03:00 +4°C° 0 mm 0 m/s 762 mmHg 89%
    04:00 +5°C° 0 mm 0 m/s 762 mmHg 86%
    05:00 +7°C° 0 mm 0 m/s 762 mmHg 83%
    06:00 +9°C° 0 mm 1 m/s 762 mmHg 80%
    07:00 +10°C° 0 mm 1 m/s 762 mmHg 75%
    08:00 +12°C° 0 mm 1 m/s 762 mmHg 70%
    09:00 +14°C° 0 mm 1 m/s 762 mmHg 65%
    10:00 +14°C° 0 mm 1 m/s 762 mmHg 65%
    11:00 +14°C° 0 mm 1 m/s 762 mmHg 64%
    12:00 +15°C° 0 mm 1 m/s 762 mmHg 64%
    13:00 +16°C° 0 mm 1 m/s 761 mmHg 63%
    14:00 +16°C° 0 mm 1 m/s 761 mmHg 63%
    15:00 +18°C° 0 mm 1 m/s 761 mmHg 62%
    16:00 +16°C° 0 mm 1 m/s 761 mmHg 66%
    17:00 +16°C° 0 mm 1 m/s 761 mmHg 70%
    18:00 +16°C° 0 mm 1 m/s 760 mmHg 73%
    19:00 +15°C° 0 mm 2 m/s 761 mmHg 77%
    20:00 +13°C° 0 mm 2 m/s 761 mmHg 82%
    21:00 +12°C° 0 mm 2 m/s 761 mmHg 86%
    22:00 +11°C° 0 mm 3 m/s 761 mmHg 86%
    23:00 +11°C° 0 mm 3 m/s 760 mmHg 87%

    10 Iunie, Miercuri

    Timp Temperatura Precipitaţii Vânt Presiune Umiditate
    00:00 +10°C° 0 mm 3 m/s 760 mmHg 87%
    01:00 +10°C° 0 mm 3 m/s 760 mmHg 89%
    02:00 +10°C° 0 mm 3 m/s 760 mmHg 90%
    03:00 +10°C° 0 mm 3 m/s 759 mmHg 92%
    04:00 +10°C° 0.1 mm 3 m/s 759 mmHg 92%
    05:00 +10°C° 0.1 mm 2 m/s 759 mmHg 92%
    06:00 +10°C° 0.1 mm 2 m/s 759 mmHg 92%
    07:00 +12°C° 0.5 mm 2 m/s 759 mmHg 92%
    08:00 +12°C° 0.5 mm 1 m/s 759 mmHg 92%
    09:00 +12°C° 0.5 mm 1 m/s 759 mmHg 91%
    10:00 +13°C° 0.5 mm 1 m/s 759 mmHg 91%
    11:00 +13°C° 0.5 mm 1 m/s 759 mmHg 90%
    12:00 +13°C° 0.5 mm 1 m/s 758 mmHg 90%
    13:00 +13°C° 0.4 mm 1 m/s 758 mmHg 90%
    14:00 +13°C° 0.4 mm 2 m/s 758 mmHg 90%
    15:00 +14°C° 0.4 mm 2 m/s 757 mmHg 90%
    16:00 +14°C° 0.3 mm 2 m/s 757 mmHg 90%
    17:00 +14°C° 0.3 mm 2 m/s 757 mmHg 89%
    18:00 +13°C° 0.3 mm 3 m/s 756 mmHg 89%
    19:00 +12°C° 0.2 mm 3 m/s 756 mmHg 90%
    20:00 +12°C° 0.2 mm 3 m/s 756 mmHg 91%
    21:00 +11°C° 0.2 mm 3 m/s 756 mmHg 92%
    22:00 +11°C° 0.1 mm 3 m/s 756 mmHg 93%
    23:00 +10°C° 0.1 mm 3 m/s 756 mmHg 93%

    11 Iunie, Joi

    Timp Temperatura Precipitaţii Vânt Presiune Umiditate
    00:00 +10°C° 0.1 mm 3 m/s 756 mmHg 93%
    01:00 +10°C° 0.1 mm 3 m/s 755 mmHg 94%
    02:00 +10°C° 0.1 mm 3 m/s 755 mmHg 94%
    03:00 +10°C° 0.1 mm 3 m/s 755 mmHg 95%
    04:00 +10°C° 0.1 mm 4 m/s 755 mmHg 94%
    05:00 +10°C° 0.1 mm 4 m/s 755 mmHg 94%
    06:00 +10°C° 0.1 mm 4 m/s 755 mmHg 94%
    07:00 +11°C° 0.1 mm 4 m/s 755 mmHg 91%
    08:00 +12°C° 0.1 mm 3 m/s 755 mmHg 89%
    09:00 +13°C° 0.1 mm 3 m/s 755 mmHg 87%
    10:00 +14°C° 0.2 mm 4 m/s 754 mmHg 83%
    11:00 +15°C° 0.2 mm 5 m/s 754 mmHg 79%
    12:00 +16°C° 0.2 mm 6 m/s 754 mmHg 75%
    13:00 +16°C° 0.5 mm 6 m/s 754 mmHg 80%
    14:00 +15°C° 0.5 mm 7 m/s 753 mmHg 86%
    15:00 +14°C° 0.5 mm 7 m/s 753 mmHg 91%
    16:00 +14°C° 0.4 mm 7 m/s 753 mmHg 92%
    17:00 +13°C° 0.4 mm 8 m/s 752 mmHg 93%
    18:00 +12°C° 0.4 mm 8 m/s 752 mmHg 93%
    19:00 +12°C° 0.9 mm 7 m/s 752 mmHg 94%
    20:00 +11°C° 0.9 mm 7 m/s 752 mmHg 95%
    21:00 +11°C° 0.9 mm 7 m/s 752 mmHg 95%
    22:00 +11°C° 1.3 mm 7 m/s 752 mmHg 96%
    23:00 +11°C° 1.3 mm 7 m/s 751 mmHg 96%

    12 Iunie, Vineri

    Timp Temperatura Precipitaţii Vânt Presiune Umiditate
    00:00 +11°C° 1.3 mm 7 m/s 751 mmHg 97%
    01:00 +11°C° 0.1 mm 6 m/s 751 mmHg 96%
    02:00 +11°C° 0.1 mm 6 m/s 750 mmHg 96%
    03:00 +11°C° 0.1 mm 6 m/s 750 mmHg 96%
    04:00 +11°C° 0.1 mm 6 m/s 750 mmHg 96%
    05:00 +13°C° 0.1 mm 6 m/s 750 mmHg 96%
    06:00 +13°C° 0.1 mm 6 m/s 750 mmHg 96%
    07:00 +14°C° 0.1 mm 6 m/s 750 mmHg 95%
    08:00 +14°C° 0.1 mm 6 m/s 749 mmHg 95%
    09:00 +15°C° 0.1 mm 5 m/s 749 mmHg 94%
    10:00 +14°C° 0.9 mm 5 m/s 749 mmHg 94%
    11:00 +14°C° 0.9 mm 5 m/s 750 mmHg 94%
    12:00 +13°C° 0.9 mm 5 m/s 750 mmHg 94%
    13:00 +14°C° 0.3 mm 4 m/s 750 mmHg 90%
    14:00 +14°C° 0.3 mm 4 m/s 750 mmHg 86%
    15:00 +14°C° 0.3 mm 3 m/s 750 mmHg 83%
    16:00 +16°C° 0 mm 3 m/s 750 mmHg 81%
    17:00 +16°C° 0 mm 3 m/s 751 mmHg 79%
    18:00 +16°C° 0 mm 3 m/s 751 mmHg 77%
    19:00 +14°C° 0 mm 3 m/s 751 mmHg 82%
    20:00 +12°C° 0 mm 3 m/s 752 mmHg 88%
    21:00 +11°C° 0 mm 3 m/s 752 mmHg 93%
    22:00 +10°C° 0 mm 3 m/s 752 mmHg 93%
    23:00 +10°C° 0 mm 3 m/s 752 mmHg 94%
    Arată mai mult